"startDT [UTC]","vpos","CH4 [ppm]","stdev(CH4) [ppm]","CO2 [ppm]","stdev(CO2) [ppm]","H2O [ppm]","stdev(H2O)","p_LGR [torr]","T_LGR [C]","mt1_LGR [us]","mt2_LGR [us]","T_ECpre [C]","T_EC1 [C]","T_EC2 [C]","p_inlet [hPa]","p_in [hPa]","p_out [hPa]","T_inlet [C]","RH_inlet [%]","dwpt_inlet [C]","T_vent [C]","RH_vent [%]","dwpt_vent [C]","flow_vent [l min-1]","flow_inlet [l min-1]","dwpt_sample [C]","T_room [C]"
2012-11-24 00:00:00,0.0,1.9233,0.0011,404.60,0.25,-1.0,0.0,138.15,26.50,24.62,36.35,0.04,-272.75,-272.74,-38,552,-925,21.0,2.0,-30.4,21.1,2.0,-30.2,5.73,2.42,-30.7,26.0
2012-11-24 00:01:00,0.0,1.9209,0.0011,404.44,0.24,-0.9,1.0,138.15,26.50,24.62,36.34,0.04,-272.74,-272.75,-38,552,-925,21.0,1.9,-30.4,21.1,2.0,-30.2,5.73,2.43,-30.7,26.1
2012-11-24 00:02:00,0.0,1.9205,0.0008,404.48,0.23,-1.0,0.0,138.15,26.50,24.62,36.35,0.04,-272.74,-272.75,-38,553,-925,21.0,2.0,-30.4,21.1,2.0,-30.2,5.73,2.43,-30.7,26.1
2012-11-24 00:03:00,0.0,1.9208,0.0009,404.47,0.21,-1.0,0.0,138.15,26.50,24.62,36.35,0.04,-272.75,-272.75,-38,552,-925,21.0,2.0,-30.4,21.1,2.0,-30.2,5.73,2.42,-30.7,26.1
2012-11-24 00:04:00,0.0,1.9201,0.0009,404.47,0.24,-1.0,0.0,138.15,26.50,24.63,36.35,0.04,-272.75,-272.75,-38,552,-925,21.0,2.0,-30.4,21.1,2.0,-30.0,5.73,2.41,-30.7,26.1
2012-11-24 00:05:00,0.0,1.9207,0.0010,404.56,0.25,-0.6,2.9,138.15,26.50,24.62,36.34,0.04,-272.75,-272.75,-38,553,-925,21.0,2.0,-30.4,21.1,2.0,-30.0,5.73,2.40,-30.7,26.1
2012-11-24 00:06:00,0.0,1.9212,0.0010,404.56,0.24,-1.0,0.0,138.15,26.50,24.62,36.34,0.04,-272.75,-272.75,-38,552,-926,21.0,2.0,-30.3,21.1,2.0,-30.1,5.73,2.40,-30.7,26.1
2012-11-24 00:07:00,0.0,1.9206,0.0011,404.55,0.21,-1.0,0.0,138.15,26.50,24.63,36.34,0.04,-272.76,-272.75,-38,553,-925,21.0,2.0,-30.3,21.1,2.0,-29.9,5.73,2.39,-30.7,26.1
2012-11-24 00:08:00,0.0,1.9208,0.0011,404.57,0.26,-1.0,0.0,138.15,26.50,24.63,36.34,0.04,-272.74,-272.75,-38,552,-925,21.0,2.0,-30.3,21.1,2.0,-29.9,5.73,2.39,-30.7,26.1
2012-11-24 00:09:00,0.0,1.9207,0.0011,404.51,0.21,-1.0,0.0,138.15,26.50,24.63,36.35,0.04,-272.75,-272.75,-38,553,-926,21.0,2.0,-30.3,21.1,2.0,-29.9,5.73,2.38,-30.7,26.1
2012-11-24 00:10:00,0.0,1.9210,0.0009,404.58,0.22,-1.0,0.0,138.15,26.50,24.63,36.34,0.04,-272.75,-272.75,-38,553,-925,21.0,2.0,-30.1,21.1,2.0,-29.9,5.73,2.40,-30.7,26.1
2012-11-24 00:11:00,0.0,1.9208,0.0010,404.67,0.19,-1.0,0.4,138.15,26.50,24.63,36.35,0.04,-272.75,-272.75,-38,552,-925,21.0,2.0,-30.1,21.1,2.1,-29.8,5.73,2.40,-30.6,26.0
2012-11-24 00:12:00,0.0,1.9207,0.0010,404.69,0.22,-1.0,0.0,138.15,26.50,24.62,36.34,0.04,-272.75,-272.75,-38,552,-926,21.0,2.0,-30.1,21.1,2.1,-29.8,5.73,2.40,-30.6,26.1
2012-11-24 00:13:00,0.0,1.9210,0.0008,404.64,0.22,-1.0,0.0,138.15,26.50,24.62,36.35,0.04,-272.75,-272.75,-38,553,-925,21.0,2.0,-30.0,21.1,2.1,-29.8,5.73,2.41,-30.7,26.1
2012-11-24 00:14:00,0.0,1.9203,0.0008,404.85,0.21,-1.0,0.0,138.15,26.51,24.62,36.34,0.04,-272.75,-272.75,-38,552,-925,21.0,2.0,-29.9,21.1,2.1,-29.7,5.73,2.42,-30.7,26.1
2012-11-24 00:15:00,0.0,1.9203,0.0010,404.72,0.22,-1.0,0.0,138.15,26.51,24.62,36.35,0.04,-272.74,-272.75,-38,553,-926,21.0,2.0,-29.9,21.1,2.1,-29.6,5.73,2.43,-30.6,26.1
2012-11-24 00:16:00,0.0,1.9197,0.0011,404.70,0.19,-1.0,0.0,138.15,26.51,24.62,36.35,0.04,-272.75,-272.75,-38,553,-925,21.0,2.1,-29.9,21.1,2.1,-29.6,5.73,2.42,-30.7,26.1
2012-11-24 00:17:00,0.0,1.9199,0.0011,404.81,0.22,0.3,7.7,138.15,26.50,24.63,36.34,0.04,-272.75,-272.75,-38,552,-926,21.0,2.1,-29.8,21.1,2.1,-29.5,5.73,2.42,-30.6,26.1
2012-11-24 00:18:00,0.0,1.9199,0.0010,404.75,0.22,-1.0,0.0,138.15,26.50,24.63,36.34,0.04,-272.75,-272.75,-38,553,-925,21.0,2.1,-29.8,21.1,2.1,-29.5,5.73,2.42,-30.6,26.1
2012-11-24 00:19:00,0.0,1.9191,0.0008,404.68,0.23,-1.0,0.0,138.15,26.50,24.63,36.34,0.04,-272.75,-272.75,-38,553,-925,21.0,2.1,-29.8,21.1,2.1,-29.5,5.73,2.41,-30.6,26.1
2012-11-24 00:20:00,0.0,1.9197,0.0008,404.74,0.26,-1.0,0.0,138.15,26.50,24.62,36.34,0.04,-272.75,-272.75,-38,553,-926,21.0,2.1,-29.8,21.1,2.1,-29.5,5.73,2.40,-30.6,26.1
2012-11-24 00:21:00,0.0,1.9195,0.0011,404.59,0.26,-1.0,0.0,138.15,26.50,24.62,36.35,0.04,-272.75,-272.75,-38,553,-925,21.0,2.1,-29.7,21.1,2.1,-29.5,5.73,2.40,-30.6,26.1
2012-11-24 00:22:00,0.0,1.9195,0.0010,404.69,0.19,-1.0,0.0,138.15,26.50,24.62,36.34,0.04,-272.75,-272.75,-38,552,-925,21.0,2.1,-29.7,21.1,2.1,-29.4,5.73,2.40,-30.6,26.1
2012-11-24 00:23:00,0.0,1.9197,0.0010,404.78,0.18,-1.0,0.0,138.15,26.50,24.63,36.34,0.04,-272.75,-272.75,-38,553,-926,21.0,2.1,-29.7,21.1,2.2,-29.4,5.73,2.39,-30.6,26.1
2012-11-24 00:24:00,0.0,1.9198,0.0010,404.74,0.21,-0.7,2.1,138.15,26.50,24.63,36.34,0.04,-272.75,-272.75,-38,553,-925,21.0,2.1,-29.6,21.1,2.1,-29.4,5.73,2.39,-30.6,26.1
2012-11-24 00:25:00,0.0,1.9195,0.0011,404.58,0.18,-1.0,0.0,138.15,26.50,24.63,36.35,0.04,-272.75,-272.75,-38,552,-925,21.0,2.1,-29.5,21.1,2.2,-29.3,5.73,2.39,-30.6,26.1
2012-11-24 00:26:00,0.0,1.9197,0.0011,404.71,0.20,-1.0,0.0,138.15,26.50,24.63,36.35,0.04,-272.75,-272.75,-38,553,-926,21.0,2.1,-29.6,21.1,2.2,-29.2,5.73,2.40,-30.6,26.1
2012-11-24 00:27:00,0.0,1.9202,0.0008,404.64,0.18,-1.0,0.0,138.15,26.50,24.62,36.35,0.04,-272.75,-272.75,-38,552,-925,21.0,2.1,-29.6,21.1,2.2,-29.2,5.73,2.41,-30.6,26.1
2012-11-24 00:28:00,0.0,1.9196,0.0011,404.74,0.21,-0.9,0.7,138.15,26.50,24.63,36.35,0.04,-272.74,-272.75,-38,553,-926,21.0,2.1,-29.5,21.1,2.2,-29.2,5.73,2.42,-30.6,26.1
2012-11-24 00:29:00,0.0,1.9198,0.0009,404.66,0.22,-1.0,0.0,138.15,26.50,24.62,36.35,0.04,-272.75,-272.74,-38,553,-926,21.0,2.1,-29.5,21.1,2.2,-29.2,5.73,2.42,-30.6,26.1
2012-11-24 00:30:00,0.0,1.9196,0.0010,404.70,0.23,-1.0,0.0,138.15,26.50,24.62,36.34,0.04,-272.75,-272.75,-38,553,-925,21.0,2.1,-29.5,21.1,2.2,-29.2,5.73,2.43,-30.6,26.1
2012-11-24 00:31:00,0.0,1.9197,0.0011,404.66,0.20,-1.0,0.0,138.15,26.50,24.62,36.34,0.04,-272.74,-272.75,-38,553,-926,21.0,2.1,-29.5,21.1,2.2,-29.2,5.73,2.43,-30.6,26.1
2012-11-24 00:32:00,0.0,1.9200,0.0010,404.62,0.24,-1.0,0.0,138.15,26.50,24.62,36.35,0.04,-272.75,-272.75,-38,552,-925,21.0,2.1,-29.5,21.1,2.2,-29.2,5.73,2.42,-30.6,26.1
2012-11-24 00:33:00,0.0,1.9200,0.0010,404.62,0.20,-1.0,0.0,138.15,26.50,24.62,36.35,0.04,-272.75,-272.75,-38,553,-925,21.0,2.1,-29.5,21.1,2.2,-29.2,5.73,2.41,-30.5,26.1
2012-11-24 00:34:00,0.0,1.9196,0.0010,404.75,0.26,-1.0,0.0,138.15,26.50,24.63,36.34,0.04,-272.75,-272.75,-38,553,-926,21.0,2.1,-29.5,21.1,2.2,-29.2,5.73,2.41,-30.5,26.1
2012-11-24 00:35:00,0.0,1.9200,0.0008,404.88,0.20,-1.0,0.0,138.15,26.50,24.62,36.34,0.04,-272.75,-272.75,-38,553,-925,21.0,2.1,-29.4,21.1,2.2,-29.1,5.73,2.40,-30.5,26.1
2012-11-24 00:36:00,0.0,1.9197,0.0009,404.90,0.22,-0.8,1.9,138.15,26.50,24.62,36.34,0.04,-272.74,-272.75,-38,553,-926,21.0,2.1,-29.4,21.1,2.2,-29.1,5.73,2.39,-30.5,26.1
2012-11-24 00:37:00,0.0,1.9203,0.0011,404.83,0.23,-0.9,0.7,138.15,26.50,24.62,36.35,0.04,-272.75,-272.75,-38,553,-926,21.0,2.2,-29.4,21.1,2.2,-29.1,5.73,2.38,-30.5,26.1
2012-11-24 00:38:00,0.0,1.9203,0.0009,404.75,0.22,-1.0,0.0,138.15,26.50,24.63,36.35,0.04,-272.75,-272.75,-38,553,-925,21.0,2.2,-29.3,21.1,2.2,-29.0,5.73,2.38,-30.5,26.1
2012-11-24 00:39:00,0.0,1.9202,0.0010,404.95,0.24,-1.0,0.0,138.15,26.50,24.63,36.34,0.04,-272.75,-272.74,-38,553,-926,21.0,2.2,-29.2,21.1,2.2,-29.0,5.73,2.39,-30.5,26.1
2012-11-24 00:40:00,0.0,1.9204,0.0009,404.96,0.21,-1.0,0.0,138.15,26.50,24.62,36.34,0.04,-272.75,-272.75,-38,553,-925,21.0,2.2,-29.3,21.1,2.2,-28.9,5.73,2.39,-30.5,26.1
2012-11-24 00:41:00,0.0,1.9207,0.0008,404.83,0.20,-1.0,0.0,138.15,26.50,24.62,36.35,0.04,-272.75,-272.75,-38,553,-925,21.0,2.2,-29.2,21.1,2.2,-28.9,5.73,2.41,-30.5,26.1
2012-11-24 00:42:00,0.0,1.9209,0.0011,404.80,0.19,-0.8,1.8,138.15,26.50,24.62,36.35,0.04,-272.75,-272.75,-38,553,-926,21.0,2.2,-29.3,21.1,2.2,-28.9,5.73,2.41,-30.5,26.1
2012-11-24 00:43:00,0.0,1.9213,0.0013,404.84,0.23,-1.0,0.0,138.15,26.50,24.62,36.35,0.04,-272.75,-272.75,-38,553,-925,21.0,2.2,-29.2,21.1,2.2,-28.9,5.73,2.42,-30.5,26.1
2012-11-24 00:44:00,0.0,1.9212,0.0008,404.78,0.21,-1.0,0.0,138.15,26.50,24.63,36.34,0.04,-272.75,-272.75,-38,553,-925,21.0,2.2,-29.2,21.1,2.2,-28.9,5.73,2.43,-30.5,26.1
2012-11-24 00:45:00,0.0,1.9213,0.0011,404.69,0.21,-1.0,0.0,138.15,26.50,24.62,36.35,0.04,-272.75,-272.75,-38,553,-925,21.1,2.2,-29.2,21.1,2.2,-28.9,5.73,2.42,-30.5,26.1
2012-11-24 00:46:00,0.0,1.9209,0.0009,404.78,0.24,-0.6,3.0,138.15,26.51,24.63,36.35,0.04,-272.75,-272.75,-38,553,-925,21.1,2.2,-29.1,21.1,2.2,-28.9,5.73,2.42,-30.4,26.1
2012-11-24 00:47:00,0.0,1.9208,0.0009,404.67,0.27,-1.0,0.0,138.15,26.51,24.62,36.35,0.04,-272.75,-272.75,-38,553,-925,21.0,2.2,-29.1,21.1,2.2,-28.9,5.73,2.41,-30.4,26.1
2012-11-24 00:48:00,0.0,1.9198,0.0009,404.50,0.25,-1.0,0.0,138.15,26.51,24.63,36.35,0.04,-272.75,-272.75,-38,553,-925,21.1,2.2,-29.1,21.1,2.2,-28.9,5.73,2.41,-30.4,26.1
2012-11-24 00:49:00,0.0,1.9202,0.0011,404.56,0.26,-0.8,1.1,138.15,26.51,24.62,36.35,0.04,-272.75,-272.75,-38,553,-925,21.1,2.2,-29.1,21.1,2.3,-28.8,5.73,2.39,-30.4,26.1
2012-11-24 00:50:00,0.0,1.9205,0.0010,404.56,0.21,-1.0,0.0,138.15,26.51,24.62,36.35,0.04,-272.75,-272.75,-38,553,-926,21.1,2.2,-29.1,21.1,2.3,-28.8,5.73,2.39,-30.4,26.1
2012-11-24 00:51:00,0.0,1.9206,0.0012,404.58,0.21,-1.0,0.0,138.15,26.51,24.62,36.34,0.04,-272.75,-272.75,-38,553,-925,21.0,2.2,-29.1,21.1,2.3,-28.8,5.73,2.38,-30.4,26.1
2012-11-24 00:52:00,0.0,1.9203,0.0010,404.64,0.21,-1.0,0.0,138.15,26.51,24.63,36.34,0.04,-272.75,-272.75,-38,553,-925,21.0,2.2,-29.1,21.1,2.3,-28.8,5.73,2.39,-30.4,26.1
2012-11-24 00:53:00,0.0,1.9200,0.0011,404.51,0.23,-0.9,0.5,138.15,26.51,24.62,36.34,0.04,-272.75,-272.75,-38,553,-925,21.0,2.2,-29.1,21.1,2.3,-28.8,5.73,2.40,-30.4,26.1
2012-11-24 00:54:00,0.0,1.9196,0.0010,404.55,0.24,-1.0,0.0,138.15,26.51,24.62,36.34,0.04,-272.74,-272.75,-38,553,-925,21.1,2.2,-29.1,21.1,2.3,-28.8,5.73,2.40,-30.4,26.1
2012-11-24 00:55:00,0.0,1.9190,0.0009,404.55,0.21,-1.0,0.0,138.15,26.51,24.63,36.34,0.04,-272.75,-272.75,-38,553,-925,21.1,2.2,-29.1,21.1,2.3,-28.8,5.73,2.41,-30.4,26.1
2012-11-24 00:56:00,0.0,1.9193,0.0011,404.54,0.20,-1.0,0.0,138.15,26.51,24.63,36.34,0.04,-272.75,-272.75,-38,553,-925,21.0,2.2,-29.1,21.1,2.3,-28.8,5.73,2.41,-30.4,26.1
2012-11-24 00:57:00,0.0,1.9195,0.0009,404.53,0.22,-0.9,0.8,138.15,26.51,24.63,36.34,0.04,-272.75,-272.75,-38,553,-925,21.0,2.2,-29.1,21.1,2.3,-28.8,5.73,2.43,-30.3,26.1
2012-11-24 00:58:00,0.0,1.9192,0.0008,404.39,0.26,-1.0,0.0,138.15,26.51,24.62,36.34,0.04,-272.75,-272.75,-38,553,-926,21.1,2.2,-29.1,21.1,2.3,-28.8,5.73,2.43,-30.3,26.1
2012-11-24 00:59:00,0.0,1.9197,0.0008,404.38,0.22,-0.6,3.3,138.15,26.51,24.63,36.34,0.04,-272.75,-272.74,-38,553,-925,21.0,2.2,-29.1,21.1,2.3,-28.8,5.73,2.42,-30.3,26.1
2012-11-24 01:00:00,0.0,1.9195,0.0010,404.42,0.23,-0.4,3.5,138.15,26.51,24.63,36.35,0.04,-272.75,-272.75,-38,553,-925,21.0,2.2,-29.1,21.1,2.2,-28.8,5.73,2.42,-30.3,26.1
2012-11-24 01:01:00,0.0,1.9199,0.0009,404.46,0.20,-1.0,0.0,138.15,26.51,24.63,36.35,0.04,-272.75,-272.75,-38,553,-925,21.0,2.2,-29.1,21.1,2.2,-28.9,5.73,2.40,-30.3,26.1
2012-11-24 01:02:00,0.0,1.9202,0.0010,404.53,0.24,-0.6,2.6,138.15,26.51,24.63,36.35,0.04,-272.75,-272.75,-38,553,-925,21.0,2.2,-29.1,21.1,2.3,-28.8,5.73,2.40,-30.3,26.1
2012-11-24 01:03:00,0.0,1.9197,0.0009,404.43,0.23,-0.8,1.0,138.15,26.51,24.63,36.35,0.04,-272.75,-272.75,-38,553,-925,21.1,2.2,-29.1,21.1,2.3,-28.8,5.73,2.39,-30.3,26.1
2012-11-24 01:04:00,0.0,1.9201,0.0009,404.31,0.19,-0.9,0.6,138.15,26.51,24.62,36.35,0.04,-272.75,-272.75,-38,553,-926,21.0,2.2,-29.1,21.1,2.3,-28.8,5.73,2.38,-30.3,26.1
2012-11-24 01:05:00,0.0,1.9193,0.0009,404.33,0.17,-0.5,2.5,138.15,26.51,24.63,36.34,0.04,-272.75,-272.75,-38,553,-925,21.1,2.2,-29.1,21.1,2.3,-28.8,5.73,2.39,-30.3,26.2
2012-11-24 01:06:00,0.0,1.9197,0.0010,404.22,0.21,-1.0,0.0,138.15,26.51,24.62,36.34,0.04,-272.75,-272.75,-38,553,-925,21.1,2.2,-28.9,21.1,2.3,-28.6,5.73,2.39,-30.3,26.2
2012-11-24 01:07:00,0.0,1.9200,0.0010,404.23,0.18,-0.7,2.5,138.15,26.52,24.62,36.35,0.04,-272.75,-272.75,-38,553,-925,21.1,2.2,-29.0,21.1,2.3,-28.7,5.73,2.40,-30.3,26.1
2012-11-24 01:08:00,0.0,1.9197,0.0010,404.27,0.20,-1.0,0.2,138.15,26.52,24.63,36.34,0.04,-272.75,-272.75,-38,553,-925,21.1,2.2,-28.9,21.1,2.3,-28.6,5.73,2.41,-30.2,26.1
2012-11-24 01:09:00,0.0,1.9197,0.0009,404.26,0.22,-0.1,4.1,138.15,26.52,24.63,36.34,0.04,-272.75,-272.75,-38,553,-925,21.1,2.2,-29.0,21.1,2.3,-28.6,5.73,2.42,-30.2,26.1
2012-11-24 01:10:00,0.0,1.9198,0.0008,404.24,0.21,-0.5,3.2,138.15,26.52,24.62,36.35,0.04,-272.75,-272.75,-38,553,-925,21.0,2.2,-28.9,21.1,2.3,-28.6,5.73,2.43,-30.2,26.1
2012-11-24 01:11:00,0.0,1.9192,0.0010,404.22,0.23,-0.4,3.5,138.15,26.52,24.63,36.35,0.04,-272.75,-272.75,-38,553,-925,21.0,2.3,-28.8,21.1,2.3,-28.5,5.73,2.43,-30.2,26.2
2012-11-24 01:12:00,0.0,1.9199,0.0011,404.26,0.18,-1.0,0.0,138.15,26.52,24.62,36.34,0.04,-272.75,-272.75,-38,553,-926,21.1,2.3,-28.7,21.1,2.3,-28.4,5.73,2.43,-30.2,26.2
2012-11-24 01:13:00,0.0,1.9195,0.0011,404.19,0.16,-0.2,3.4,138.15,26.52,24.63,36.34,0.04,-272.75,-272.75,-38,553,-925,21.1,2.3,-28.7,21.1,2.3,-28.4,5.73,2.42,-30.2,26.2
2012-11-24 01:14:00,0.0,1.9198,0.0011,404.11,0.19,-0.7,2.7,138.15,26.52,24.63,36.35,0.04,-272.75,-272.75,-38,553,-926,21.0,2.3,-28.6,21.1,2.3,-28.4,5.73,2.41,-30.2,26.1
2012-11-24 01:15:00,0.0,1.9200,0.0009,404.23,0.20,-0.8,1.2,138.15,26.52,24.63,36.35,0.04,-272.75,-272.75,-38,553,-926,21.0,2.3,-28.6,21.1,2.3,-28.4,5.73,2.40,-30.2,26.1
2012-11-24 01:16:00,0.0,1.9207,0.0011,404.19,0.20,-0.7,2.2,138.15,26.52,24.62,36.34,0.04,-272.75,-272.74,-38,553,-925,21.0,2.3,-28.6,21.1,2.4,-28.3,5.73,2.40,-30.2,26.1
2012-11-24 01:17:00,0.0,1.9212,0.0010,404.26,0.20,0.4,6.9,138.15,26.52,24.62,36.35,0.04,-272.75,-272.75,-38,553,-926,21.0,2.3,-28.6,21.2,2.3,-28.4,5.73,2.39,-30.2,26.1
2012-11-24 01:18:00,0.0,1.9206,0.0010,404.17,0.19,-1.0,0.0,138.15,26.52,24.62,36.35,0.04,-272.75,-272.75,-38,553,-925,21.1,2.3,-28.5,21.2,2.3,-28.4,5.73,2.39,-30.1,26.1
2012-11-24 01:19:00,0.0,1.9208,0.0008,404.19,0.18,-0.6,2.4,138.15,26.52,24.62,36.35,0.04,-272.75,-272.75,-38,553,-926,21.1,2.3,-28.7,21.2,2.3,-28.4,5.73,2.39,-30.1,26.1
2012-11-24 01:20:00,0.0,1.9211,0.0009,404.25,0.22,-0.7,2.6,138.15,26.52,24.62,36.35,0.04,-272.75,-272.75,-38,553,-925,21.1,2.3,-28.7,21.2,2.3,-28.4,5.73,2.39,-30.1,26.1
2012-11-24 01:21:00,0.0,1.9204,0.0009,404.04,0.19,-1.0,0.2,138.15,26.53,24.63,36.35,0.04,-272.75,-272.75,-38,553,-925,21.1,2.3,-28.7,21.1,2.3,-28.4,5.73,2.41,-30.1,26.1
2012-11-24 01:22:00,0.0,1.9202,0.0010,404.11,0.24,-1.0,0.0,138.15,26.53,24.62,36.35,0.04,-272.75,-272.75,-38,553,-926,21.0,2.3,-28.6,21.1,2.3,-28.4,5.73,2.42,-30.1,26.1
2012-11-24 01:23:00,0.0,1.9199,0.0010,404.14,0.21,-0.8,1.4,138.15,26.53,24.63,36.35,0.04,-272.74,-272.75,-38,553,-925,21.0,2.3,-28.7,21.2,2.3,-28.4,5.73,2.43,-30.1,26.1
2012-11-24 01:24:00,0.0,1.9198,0.0010,404.09,0.21,-0.8,1.4,138.15,26.53,24.63,36.34,0.04,-272.75,-272.75,-38,553,-926,21.0,2.3,-28.7,21.2,2.3,-28.4,5.73,2.43,-30.1,26.1
2012-11-24 01:25:00,0.0,1.9199,0.0009,404.01,0.21,-1.0,0.0,138.15,26.53,24.62,36.35,0.04,-272.75,-272.76,-38,553,-926,21.1,2.3,-28.7,21.1,2.3,-28.4,5.73,2.43,-30.1,26.1
2012-11-24 01:26:00,0.0,1.9199,0.0009,404.09,0.21,-0.3,5.7,138.15,26.53,24.63,36.35,0.04,-272.75,-272.75,-38,553,-925,21.1,2.3,-28.7,21.1,2.3,-28.4,5.73,2.42,-30.1,26.1
2012-11-24 01:27:00,0.0,1.9206,0.0010,404.13,0.19,-0.5,2.9,138.15,26.53,24.62,36.35,0.04,-272.75,-272.75,-38,553,-926,21.1,2.3,-28.7,21.2,2.3,-28.4,5.73,2.41,-30.1,26.2
2012-11-24 01:28:00,0.0,1.9209,0.0011,404.33,0.17,-0.9,0.8,138.15,26.53,24.63,36.35,0.04,-272.75,-272.75,-38,553,-925,21.1,2.3,-28.7,21.2,2.3,-28.4,5.73,2.40,-30.1,26.1
2012-11-24 01:29:00,0.0,1.9216,0.0010,404.43,0.21,-0.9,0.8,138.15,26.53,24.63,36.35,0.04,-272.75,-272.75,-38,553,-926,21.1,2.3,-28.7,21.1,2.3,-28.4,5.73,2.39,-30.0,26.1
2012-11-24 01:30:00,0.0,1.9218,0.0010,404.37,0.23,-0.4,4.1,138.15,26.53,24.62,36.34,0.04,-272.75,-272.75,-38,553,-926,21.1,2.3,-28.7,21.1,2.3,-28.4,5.73,2.38,-30.0,26.1
2012-11-24 01:31:00,0.0,1.9209,0.0011,404.33,0.27,-0.7,2.1,138.15,26.53,24.62,36.34,0.04,-272.75,-272.75,-38,553,-925,21.1,2.3,-28.7,21.1,2.3,-28.4,5.73,2.39,-30.0,26.2
2012-11-24 01:32:00,0.0,1.9203,0.0009,404.22,0.26,-0.8,1.4,138.15,26.53,24.62,36.34,0.04,-272.75,-272.75,-38,553,-926,21.1,2.3,-28.7,21.2,2.3,-28.4,5.73,2.39,-30.0,26.2
2012-11-24 01:33:00,0.0,1.9204,0.0009,404.23,0.21,-0.7,2.1,138.15,26.53,24.63,36.34,0.04,-272.75,-272.75,-38,553,-925,21.1,2.3,-28.7,21.1,2.3,-28.4,5.73,2.40,-30.0,26.1
2012-11-24 01:34:00,0.0,1.9206,0.0009,404.37,0.23,-1.0,0.0,138.15,26.53,24.63,36.34,0.04,-272.75,-272.75,-38,553,-926,21.1,2.3,-28.7,21.1,2.3,-28.4,5.73,2.40,-30.0,26.2
2012-11-24 01:35:00,0.0,1.9216,0.0009,404.45,0.23,-1.0,0.0,138.15,26.53,24.62,36.35,0.04,-272.75,-272.75,-38,553,-926,21.1,2.3,-28.7,21.2,2.3,-28.4,5.73,2.42,-30.0,26.1
2012-11-24 01:36:00,0.0,1.9211,0.0011,404.44,0.16,0.4,7.0,138.15,26.53,24.63,36.35,0.04,-272.75,-272.75,-38,553,-926,21.1,2.3,-28.7,21.2,2.3,-28.3,5.73,2.43,-30.0,26.1
2012-11-24 01:37:00,0.0,1.9205,0.0008,404.48,0.27,-0.6,2.0,138.15,26.53,24.63,36.35,0.04,-272.75,-272.75,-39,553,-926,21.1,2.3,-28.6,21.2,2.3,-28.4,5.73,2.43,-30.0,26.2
2012-11-24 01:38:00,0.0,1.9203,0.0010,404.64,0.22,-0.5,3.4,138.15,26.53,24.63,36.34,0.04,-272.75,-272.76,-38,553,-925,21.1,2.3,-28.7,21.2,2.3,-28.4,5.73,2.43,-29.9,26.2
2012-11-24 01:39:00,0.0,1.9208,0.0013,404.49,0.26,-0.7,1.2,138.15,26.53,24.62,36.35,0.04,-272.75,-272.75,-38,553,-926,21.1,2.3,-28.6,21.2,2.3,-28.4,5.73,2.41,-29.9,26.2
2012-11-24 01:40:00,0.0,1.9213,0.0010,404.70,0.20,-0.5,3.4,138.15,26.53,24.63,36.34,0.04,-272.75,-272.75,-38,553,-925,21.1,2.3,-28.7,21.2,2.3,-28.4,5.73,2.41,-29.9,26.2
2012-11-24 01:41:00,0.0,1.9221,0.0011,404.75,0.20,-0.7,2.5,138.15,26.53,24.62,36.34,0.04,-272.75,-272.75,-38,553,-926,21.1,2.3,-28.7,21.2,2.3,-28.4,5.73,2.40,-29.9,26.2
2012-11-24 01:42:00,0.0,1.9217,0.0010,404.80,0.25,-0.3,3.6,138.15,26.53,24.63,36.35,0.04,-272.75,-272.75,-38,553,-926,21.1,2.3,-28.7,21.2,2.3,-28.4,5.73,2.39,-29.9,26.2
2012-11-24 01:43:00,0.0,1.9221,0.0011,404.80,0.20,-0.4,3.7,138.15,26.54,24.62,36.35,0.04,-272.75,-272.75,-38,553,-926,21.1,2.3,-28.7,21.2,2.3,-28.4,5.73,2.39,-29.9,26.2
2012-11-24 01:44:00,0.0,1.9210,0.0012,404.79,0.19,-0.8,1.7,138.15,26.54,24.63,36.35,0.04,-272.74,-272.75,-38,553,-926,21.1,2.3,-28.7,21.2,2.3,-28.4,5.73,2.38,-29.9,26.2
2012-11-24 01:45:00,0.0,1.9209,0.0010,404.77,0.19,-0.8,1.0,138.15,26.54,24.63,36.35,0.04,-272.75,-272.75,-38,553,-925,21.1,2.3,-28.7,21.2,2.3,-28.5,5.73,2.39,-29.9,26.2
2012-11-24 01:46:00,0.0,1.9217,0.0010,404.86,0.21,-0.9,0.9,138.15,26.54,24.63,36.34,0.04,-272.75,-272.75,-38,553,-926,21.1,2.3,-28.6,21.2,2.3,-28.4,5.73,2.40,-29.9,26.2
2012-11-24 01:47:00,0.0,1.9223,0.0010,404.90,0.22,-0.2,4.4,138.15,26.54,24.63,36.34,0.04,-272.75,-272.75,-39,553,-925,21.1,2.3,-28.7,21.2,2.3,-28.4,5.73,2.41,-29.9,26.2
2012-11-24 01:48:00,0.0,1.9220,0.0009,404.85,0.22,-0.1,4.3,138.15,26.54,24.62,36.35,0.04,-272.75,-272.75,-38,553,-926,21.1,2.3,-28.7,21.2,2.3,-28.5,5.73,2.42,-29.8,26.2
2012-11-24 01:49:00,0.0,1.9224,0.0010,404.88,0.20,1.1,8.4,138.15,26.54,24.63,36.34,0.04,-272.75,-272.75,-38,553,-925,21.1,2.3,-28.7,21.2,2.3,-28.5,5.73,2.42,-29.9,26.1
2012-11-24 01:50:00,0.0,1.9220,0.0011,404.84,0.23,-0.7,1.5,138.15,26.54,24.63,36.35,0.04,-272.75,-272.75,-38,553,-926,21.1,2.3,-28.7,21.2,2.3,-28.5,5.73,2.43,-29.9,26.2
2012-11-24 01:51:00,0.0,1.9222,0.0011,404.98,0.23,-0.0,6.0,138.15,26.54,24.63,36.34,0.04,-272.75,-272.75,-38,553,-926,21.1,2.3,-28.7,21.2,2.3,-28.4,5.73,2.42,-29.8,26.2
2012-11-24 01:52:00,0.0,1.9220,0.0010,404.87,0.17,-0.8,1.2,138.15,26.54,24.63,36.35,0.04,-272.75,-272.75,-38,553,-925,21.1,2.3,-28.7,21.2,2.3,-28.5,5.73,2.42,-29.8,26.2
2012-11-24 01:53:00,0.0,1.9220,0.0010,404.86,0.23,-0.7,1.3,138.15,26.55,24.63,36.35,0.04,-272.74,-272.75,-38,553,-926,21.1,2.3,-28.7,21.2,2.3,-28.5,5.73,2.41,-29.8,26.2
2012-11-24 01:54:00,0.0,1.9225,0.0007,404.91,0.23,0.6,7.0,138.15,26.55,24.63,36.35,0.04,-272.75,-272.75,-38,553,-925,21.1,2.3,-28.7,21.2,2.3,-28.5,5.73,2.39,-29.8,26.2
2012-11-24 01:55:00,0.0,1.9229,0.0009,405.02,0.19,-0.3,3.2,138.15,26.55,24.63,36.34,0.04,-272.75,-272.75,-38,553,-926,21.1,2.3,-28.7,21.2,2.3,-28.5,5.73,2.39,-29.8,26.2
2012-11-24 01:56:00,0.0,1.9222,0.0011,404.88,0.23,-0.9,0.8,138.15,26.55,24.63,36.35,0.04,-272.75,-272.75,-38,553,-925,21.1,2.3,-28.7,21.2,2.3,-28.5,5.73,2.38,-29.8,26.2
2012-11-24 01:57:00,0.0,1.9227,0.0009,405.03,0.20,1.1,6.8,138.15,26.55,24.63,36.34,0.04,-272.75,-272.74,-38,553,-926,21.1,2.3,-28.7,21.2,2.3,-28.5,5.73,2.39,-29.8,26.2
2012-11-24 01:58:00,0.0,1.9228,0.0011,404.92,0.22,-1.0,0.2,138.15,26.55,24.63,36.35,0.04,-272.75,-272.75,-38,553,-926,21.1,2.3,-28.7,21.2,2.3,-28.5,5.73,2.40,-29.8,26.2
2012-11-24 01:59:00,0.0,1.9228,0.0009,404.97,0.29,-0.2,3.9,138.15,26.55,24.63,36.35,0.04,-272.75,-272.75,-38,553,-926,21.1,2.3,-28.7,21.2,2.3,-28.5,5.73,2.41,-29.8,26.2
2012-11-24 02:00:00,0.0,1.9229,0.0009,404.94,0.23,-0.3,4.9,138.15,26.55,24.62,36.35,0.04,-272.75,-272.75,-38,553,-926,21.1,2.3,-28.6,21.2,2.3,-28.4,5.73,2.42,-29.7,26.2
2012-11-24 02:01:00,0.0,1.9229,0.0008,404.95,0.19,-0.3,3.9,138.15,26.55,24.63,36.34,0.04,-272.75,-272.75,-38,553,-925,21.1,2.3,-28.5,21.2,2.3,-28.4,5.73,2.42,-29.7,26.2
2012-11-24 02:02:00,0.0,1.9227,0.0009,404.98,0.22,0.0,4.1,138.15,26.56,24.62,36.35,0.04,-272.75,-272.75,-38,553,-926,21.1,2.3,-28.5,21.2,2.3,-28.3,5.73,2.43,-29.7,26.2
2012-11-24 02:03:00,0.0,1.9223,0.0011,404.96,0.23,0.1,4.6,138.15,26.56,24.63,36.35,0.04,-272.75,-272.75,-38,553,-925,21.1,2.3,-28.5,21.2,2.3,-28.4,5.73,2.42,-29.7,26.2
2012-11-24 02:04:00,0.0,1.9226,0.0009,404.93,0.25,-1.0,0.2,138.15,26.56,24.63,36.35,0.04,-272.75,-272.75,-38,553,-926,21.1,2.3,-28.5,21.2,2.3,-28.3,5.73,2.41,-29.7,26.2
2012-11-24 02:05:00,0.0,1.9227,0.0010,404.99,0.20,0.2,6.5,138.15,26.56,24.63,36.35,0.04,-272.75,-272.75,-39,553,-925,21.1,2.3,-28.5,21.2,2.3,-28.3,5.73,2.41,-29.7,26.3
2012-11-24 02:06:00,0.0,1.9229,0.0009,404.99,0.26,-0.1,5.7,138.15,26.56,24.63,36.34,0.04,-272.76,-272.75,-38,553,-926,21.2,2.3,-28.5,21.2,2.3,-28.3,5.73,2.40,-29.7,26.2
2012-11-24 02:07:00,0.0,1.9227,0.0011,404.88,0.22,0.1,4.9,138.15,26.56,24.63,36.35,0.04,-272.75,-272.75,-38,553,-925,21.1,2.3,-28.5,21.2,2.3,-28.3,5.73,2.39,-29.7,26.2
2012-11-24 02:08:00,0.0,1.9228,0.0011,404.95,0.25,-0.8,1.3,138.15,26.56,24.63,36.35,0.04,-272.75,-272.75,-38,553,-926,21.1,2.3,-28.5,21.3,2.3,-28.3,5.73,2.38,-29.7,26.3
2012-11-24 02:09:00,0.0,1.9228,0.0009,404.95,0.19,3.4,12.2,138.15,26.56,24.63,36.35,0.04,-272.75,-272.75,-38,554,-925,21.1,2.3,-28.5,21.2,2.3,-28.4,5.73,2.39,-29.7,26.2
2012-11-24 02:10:00,0.0,1.9230,0.0010,404.80,0.19,-0.2,3.0,138.15,26.56,24.63,36.35,0.04,-272.74,-272.75,-38,553,-926,21.2,2.3,-28.5,21.2,2.3,-28.4,5.73,2.40,-29.6,26.2
2012-11-24 02:11:00,0.0,1.9227,0.0011,404.90,0.23,1.0,7.3,138.15,26.56,24.63,36.35,0.04,-272.75,-272.75,-38,553,-926,21.2,2.3,-28.5,21.2,2.4,-28.3,5.73,2.40,-29.7,26.3
2012-11-24 02:12:00,0.0,1.9225,0.0009,404.94,0.21,0.2,5.2,138.15,26.56,24.63,36.34,0.04,-272.75,-272.75,-38,553,-926,21.2,2.3,-28.4,21.3,2.4,-28.2,5.73,2.42,-29.6,26.2
2012-11-24 02:13:00,0.0,1.9231,0.0010,404.88,0.23,-0.5,3.1,138.15,26.56,24.62,36.34,0.04,-272.74,-272.75,-38,554,-926,21.2,2.3,-28.4,21.3,2.4,-28.2,5.73,2.43,-29.6,26.2
2012-11-24 02:14:00,0.0,1.9224,0.0011,404.80,0.18,0.9,6.9,138.15,26.56,24.63,36.35,0.04,-272.75,-272.75,-38,553,-925,21.2,2.3,-28.4,21.3,2.4,-28.2,5.73,2.43,-29.6,26.3
2012-11-24 02:15:00,0.0,1.9227,0.0009,404.80,0.18,1.1,6.8,138.15,26.56,24.62,36.35,0.04,-272.75,-272.75,-39,554,-926,21.1,2.3,-28.4,21.3,2.4,-28.2,5.73,2.43,-29.6,26.2
2012-11-24 02:16:00,0.0,1.9225,0.0010,404.81,0.20,0.7,6.7,138.15,26.56,24.63,36.35,0.04,-272.75,-272.75,-38,554,-925,21.1,2.3,-28.4,21.3,2.4,-28.2,5.73,2.41,-29.6,26.2
2012-11-24 02:17:00,0.0,1.9231,0.0009,404.88,0.19,1.1,6.8,138.15,26.57,24.62,36.34,0.04,-272.75,-272.75,-38,554,-926,21.2,2.3,-28.3,21.3,2.4,-28.2,5.73,2.40,-29.6,26.2
2012-11-24 02:18:00,0.0,1.9228,0.0009,404.84,0.19,-0.1,3.5,138.15,26.57,24.63,36.35,0.04,-272.75,-272.75,-38,553,-925,21.2,2.3,-28.4,21.3,2.4,-28.2,5.73,2.40,-29.6,26.2